TimeGMT,TemperatureF,Dew PointF,Humidity,Sea Level PressureIn,VisibilityMPH,Wind Direction,Wind SpeedMPH,Gust SpeedMPH,PrecipitationIn,Events,Conditions,WindDirDegrees,DateUTC
12:50 AM,44.6,37.4,76,29.53,6.2,East,4.6,-,N/A,,Mostly Cloudy,80,2013-03-06 00:50:00
1:50 AM,46.4,37.4,71,29.50,6.2,ENE,3.5,-,N/A,,Overcast,70,2013-03-06 01:50:00
2:50 AM,45,38,68,29.52,6,ESE,2.3,,,,Overcast,110,2013-03-06 02:50:00
2:50 AM,44.6,37.4,76,29.50,6.2,ESE,2.3,-,N/A,,Overcast,110,2013-03-06 02:50:00
3:50 AM,46.4,39.2,76,29.50,6.2,East,6.9,-,N/A,Rain,Light Rain,90,2013-03-06 03:50:00
4:50 AM,46.4,39.2,76,29.50,6.2,East,5.8,-,N/A,Rain,Light Rain,90,2013-03-06 04:50:00
5:50 AM,46,40,72,29.50,6,East,6.9,,,Rain,Light Rain,100,2013-03-06 05:50:00
5:50 AM,46.4,39.2,76,29.47,6.2,East,6.9,-,N/A,Rain,Light Rain,100,2013-03-06 05:50:00
6:50 AM,44.6,41.0,87,29.47,5.0,ENE,3.5,-,N/A,Rain,Light Rain,60,2013-03-06 06:50:00
7:50 AM,46.4,42.8,87,29.50,4.3,East,3.5,-,N/A,,Haze,90,2013-03-06 07:50:00
8:50 AM,47,41,73,29.52,4,East,8.1,,,,Haze,100,2013-03-06 08:50:00
8:50 AM,48.2,41.0,76,29.50,4.3,East,8.1,-,N/A,,Haze,100,2013-03-06 08:50:00
9:50 AM,48.2,41.0,76,29.50,5.0,East,6.9,-,N/A,,Haze,90,2013-03-06 09:50:00
10:50 AM,50.0,42.8,76,29.50,-9999.0,ENE,5.8,-,N/A,,Clear,70,2013-03-06 10:50:00
11:50 AM,52,43,63,29.51,6,East,10.4,,,,Partly Cloudy,80,2013-03-06 11:50:00
11:50 AM,51.8,42.8,71,29.50,-9999.0,East,10.4,-,N/A,,Clear,80,2013-03-06 11:50:00
12:50 PM,53.6,42.8,67,29.47,-9999.0,ESE,11.5,-,N/A,,Clear,110,2013-03-06 12:50:00
1:50 PM,53.6,42.8,67,29.47,6.2,ESE,10.4,-,N/A,,Overcast,110,2013-03-06 13:50:00
2:50 PM,54,43,58,29.48,7,ESE,11.5,,,,Overcast,110,2013-03-06 14:50:00
2:50 PM,53.6,42.8,67,29.47,6.2,ESE,11.5,-,N/A,,Overcast,110,2013-03-06 14:50:00
3:50 PM,53.6,42.8,67,29.44,6.2,East,10.4,-,N/A,,Overcast,90,2013-03-06 15:50:00
4:50 PM,53.6,42.8,67,29.44,-9999.0,ESE,8.1,-,N/A,,Clear,120,2013-03-06 16:50:00
5:50 PM,52,44,65,29.48,7,East,5.8,,,,Mostly Cloudy,90,2013-03-06 17:50:00
5:50 PM,51.8,44.6,76,29.47,-9999.0,East,5.8,-,N/A,,Clear,90,2013-03-06 17:50:00
6:50 PM,51.8,42.8,71,29.47,6.2,East,5.8,-,N/A,Rain,Light Rain,100,2013-03-06 18:50:00
7:50 PM,50.0,42.8,76,29.47,-9999.0,East,8.1,-,N/A,,Clear,100,2013-03-06 19:50:00
8:50 PM,50,43,70,29.49,9,East,8.1,,,Rain,Light Rain,80,2013-03-06 20:50:00
8:50 PM,50.0,42.8,76,29.47,6.2,East,8.1,-,N/A,Rain,Light Rain,80,2013-03-06 20:50:00
9:50 PM,50.0,42.8,76,29.47,6.2,East,6.9,-,N/A,Rain,Light Rain,100,2013-03-06 21:50:00
10:50 PM,50.0,42.8,76,29.47,6.2,East,6.9,-,N/A,,Mostly Cloudy,100,2013-03-06 22:50:00
11:50 PM,48,44,81,29.47,9,ESE,8.1,,,Rain,Light Rain,110,2013-03-06 23:50:00
11:50 PM,48.2,44.6,87,29.44,6.2,ESE,8.1,-,N/A,Rain,Light Rain,110,2013-03-06 23:50:00